CAPE
0 0 0 0 0 0 1 2 1 3 4 3 0 6 6 4 4 6 5 4 3 2
0 0 0 1 1 2 3 2 0 0 2 2 4 4 6 4 4 4 2 2 2 2
0 0 0 1 3 3 4 0 0 0 0 3 3 2 3 4 2 3 3 2 3 2
0 1 1 2 1 3 2 2 0 2 0 2 2 2 5 1 0 5 3 3 3 2
1 1 1 0 1 4 3 1 2 3 5 6 6 5 4 4 6 2 1 4 2 6
0 0 0 1 1 2 2 2 2 2 4 5 5 6 3 7 5 4 5 4 2 2
0 0 0 0 1 1 0 0 2 3 5 5 2 5 4 3 4 2 4 5 4 2
0 0 0 0 1 0 0 0 0 1 1 1 1 2 3 5 4 4 2 1 2 1
0 0 0 1 1 1 1 1 2 3 4 2 0 1 1 2 3 2 1 0 0 1
0 0 0 1 1 2 2 2 1 0 1 0 1 0 1 2 2 1 0 0 0 0
0 0 0 0 0 0 0 0 0 0 1 1 0 0 0 0 1 1 0 1 1 0
0 0 0 0 1 1 1 2 1 2 0 0 0 0 0 0 0 0 0 0 0 0
0 1 0 1 2 2 3 3 5 2 2 1 0 0 0 0 0 0 0 0 0 0
2 1 2 2 1 3 3 1 2 2 1 0 0 0 0 0 0 0 0 0 0 0
CIN
-0 -0 -0 -0 -1 -2 -1 -1 -1 -0 -0 -0 -0 -0 -0 -0 -0 -0 -0 -0 -0 -0
-0 -0 -0 -1 -0 -1 -0 -0 -0 -0 -0 -0 -0 -0 -0 -0 -0 -0 -0 -0 -0 -0
-1 -1 -0 -0 -0 -0 -0 -0 -0 -0 -0 -1 -0 -0 -1 -0 -0 -0 -0 -0 -0 -0
-0 -0 -0 -0 -1 -0 -1 -1 -2 -1 -1 -0 -1 -1 -0 -0 -1 -0 -1 -0 -0 -0
-0 -0 -0 -1 -1 -1 -0 -1 -1 -1 -0 -0 -0 -0 -1 -0 -0 -1 -1 -0 -0 -0
-0 -0 -1 -0 -0 -0 -0 -0 -0 -1 -0 -0 -0 -0 -0 -0 -1 -1 -1 -0 -0 -0
-0 -0 -0 -0 -1 -1 -0 -1 -0 -0 -0 -0 -0 -0 -0 -0 -1 -1 -1 -0 -0 -0
-0 -0 -0 -0 -1 -1 -1 -1 -1 -1 -1 -1 -0 -0 -0 -0 -1 -1 -1 -1 -0 -0
-0 -1 -0 -0 -1 -0 -0 -1 -1 -0 -0 -0 -0 -1 -0 -0 -0 -1 -1 -0 -0 -0
-0 -0 -1 -0 -0 -0 -0 -0 -1 -0 -0 -0 -0 -0 -0 -0 -0 -0 -0 -0 -0 -0
-0 -0 -0 -0 -1 -0 -0 -0 -1 -1 -0 -0 -0 -0 -0 -1 -1 -0 -0 -0 -0 -0
-0 -0 -1 -0 -1 -1 -0 -1 -1 -0 -0 -0 -0 -0 -0 -0 -0 -0 -0 -0 -0 -0
-1 -1 -0 -1 -1 -0 -0 -1 -0 -1 -0 -1 -0 -0 -0 -0 -0 -0 -0 -0 -0 -0
-0 -0 -0 -1 -0 -0 -1 -1 -1 -1 -1 -0 -0 -0 -0 -0 -0 -0 -0 -0 -0 -0
Wind_Speed
32 32 32 34 35 34 36 36 37 38 39 39 40 41 41 43 44 42 42 43 43 44
32 32 33 33 33 33 34 35 36 37 37 38 39 40 41 41 43 43 44 44 44 45
32 32 32 32 32 33 33 34 35 35 36 36 37 38 39 39 41 43 43 44 46 44
30 30 30 31 31 31 32 33 33 34 35 36 36 37 38 38 38 40 41 42 45 47
28 28 28 29 30 30 31 31 32 33 34 35 36 36 37 36 37 39 41 43 44 43
27 26 27 27 28 28 29 30 31 32 34 35 37 38 37 35 36 38 39 39 41 42
26 25 25 25 26 27 27 29 30 31 33 35 37 38 38 37 37 37 37 37 38 38
24 24 23 23 24 25 26 27 29 30 32 34 36 38 39 39 39 39 38 37 35 35
23 23 22 22 22 23 25 26 28 30 31 34 36 39 39 39 39 40 40 39 36 33
21 21 21 20 21 22 23 25 27 29 31 33 37 40 38 38 38 40 41 40 38 34
20 20 19 19 19 20 22 24 26 28 31 32 34 37 36 34 36 38 40 40 40 36
18 18 18 17 18 19 20 22 25 27 30 32 33 35 33 31 31 33 33 36 35 34
17 16 16 16 17 18 19 21 23 25 28 30 32 33 35 31 27 29 27 25 28 31
15 15 15 16 17 17 18 20 22 24 27 30 32 33 35 36 34 34 33 35 26 26
Wind_Direction
342 338 334 330 326 322 317 319 314 309 311 311 307 303 300 293 289 290 289 287 286 285
342 340 336 331 329 328 321 318 316 311 314 312 309 306 302 298 292 290 288 287 286 283
343 341 342 337 334 334 328 325 326 322 319 318 314 314 307 303 298 293 291 289 284 285
345 343 344 343 339 340 340 339 336 331 328 323 319 316 314 310 306 300 297 295 289 286
348 347 345 345 342 344 347 348 345 342 341 337 332 327 323 319 314 309 304 301 295 291
348 349 348 345 345 344 348 348 348 350 350 347 346 344 339 336 330 321 317 312 304 297
346 348 350 350 348 349 351 350 350 351 352 352 353 353 351 349 343 337 329 320 314 307
346 347 347 347 349 351 353 354 354 354 356 356 356 355 356 357 356 351 343 337 329 321
347 347 347 347 348 350 353 356 359 356 357 358 359 357 360 2 2 0 356 350 343 334
350 348 346 347 348 348 351 353 355 356 358 0 2 0 4 8 12 8 5 0 356 350
353 351 345 342 344 345 348 352 355 356 358 358 357 355 357 358 6 10 9 6 5 2
351 346 338 338 338 340 345 349 354 356 356 358 357 353 350 350 353 355 357 1 1 1
350 344 337 332 339 340 342 344 346 352 355 353 353 351 354 350 343 348 345 345 351 357
358 343 336 343 336 329 328 334 339 345 351 354 356 353 356 357 356 356 356 357 344 346